TimeCDT,TemperatureF,Dew PointF,Humidity,Sea Level PressureIn,VisibilityMPH,Wind Direction,Wind SpeedMPH,Gust SpeedMPH,PrecipitationIn,Events,Conditions,WindDirDegrees,DateUTC
12:15 AM,21.2,15.8,80,30.10,10.0,NW,9.2,-,N/A,,Overcast,310,2013-03-13 05:15:00
12:55 AM,21.2,15.8,80,30.11,10.0,NW,10.4,-,N/A,,Mostly Cloudy,320,2013-03-13 05:55:00
1:15 AM,21.2,14.0,74,30.11,10.0,NNW,16.1,-,N/A,,Mostly Cloudy,330,2013-03-13 06:15:00
1:35 AM,19.4,14.0,80,30.12,10.0,NNW,15.0,-,N/A,,Mostly Cloudy,330,2013-03-13 06:35:00
1:55 AM,19.4,14.0,80,30.13,10.0,NNW,10.4,-,N/A,,Overcast,330,2013-03-13 06:55:00
2:15 AM,21.2,15.8,80,30.14,9.0,NNW,11.5,-,N/A,Snow,Light Snow,330,2013-03-13 07:15:00
2:35 AM,21.2,14.0,74,30.14,10.0,NW,15.0,21.9,N/A,,Overcast,320,2013-03-13 07:35:00
2:55 AM,19.4,14.0,80,30.15,10.0,NNW,13.8,-,N/A,,Overcast,330,2013-03-13 07:55:00
3:15 AM,19.4,14.0,80,30.15,10.0,NW,11.5,-,N/A,,Overcast,320,2013-03-13 08:15:00
4:55 AM,17.6,10.4,73,30.19,10.0,NW,6.9,-,N/A,,Clear,310,2013-03-13 09:55:00
5:15 AM,15.8,10.4,79,30.19,10.0,WNW,8.1,13.8,N/A,,Clear,300,2013-03-13 10:15:00
5:35 AM,15.8,10.4,79,30.20,10.0,NW,8.1,13.8,N/A,,Clear,310,2013-03-13 10:35:00
5:55 AM,15.8,10.4,79,30.21,10.0,NW,9.2,-,N/A,,Clear,310,2013-03-13 10:55:00
6:15 AM,15.8,10.4,79,30.22,10.0,NW,9.2,-,N/A,,Clear,310,2013-03-13 11:15:00
6:35 AM,15.8,8.6,73,30.23,10.0,NW,5.8,-,N/A,,Clear,310,2013-03-13 11:35:00
6:55 AM,15.8,8.6,73,30.23,10.0,NW,6.9,-,N/A,,Clear,310,2013-03-13 11:55:00
7:15 AM,14.0,8.6,79,30.24,10.0,NW,5.8,-,N/A,,Clear,320,2013-03-13 12:15:00
7:35 AM,14.0,8.6,79,30.25,10.0,Variable,6.9,-,N/A,,Clear,0,2013-03-13 12:35:00
7:55 AM,14.0,8.6,79,30.25,10.0,NW,8.1,-,N/A,,Clear,310,2013-03-13 12:55:00
8:15 AM,15.8,8.6,73,30.26,10.0,NW,8.1,-,N/A,,Clear,320,2013-03-13 13:15:00
8:35 AM,15.8,10.4,79,30.27,10.0,NW,10.4,-,N/A,,Clear,310,2013-03-13 13:35:00
8:55 AM,15.8,10.4,79,30.28,10.0,NW,9.2,-,N/A,,Clear,310,2013-03-13 13:55:00
9:15 AM,17.6,10.4,73,30.29,10.0,NW,9.2,-,N/A,,Clear,310,2013-03-13 14:15:00
9:35 AM,17.6,10.4,73,30.30,10.0,NW,11.5,-,N/A,,Clear,320,2013-03-13 14:35:00
9:55 AM,19.4,10.4,68,30.31,10.0,WNW,6.9,-,N/A,,Clear,290,2013-03-13 14:55:00
10:15 AM,19.4,10.4,68,30.31,10.0,NW,8.1,-,N/A,,Clear,310,2013-03-13 15:15:00
10:35 AM,21.2,10.4,63,30.32,8.0,NW,6.9,-,N/A,,Clear,310,2013-03-13 15:35:00
10:55 AM,21.2,10.4,63,30.32,10.0,WNW,8.1,-,N/A,,Clear,300,2013-03-13 15:55:00
11:15 AM,21.2,10.4,63,30.33,10.0,NW,9.2,-,N/A,,Clear,310,2013-03-13 16:15:00
11:35 AM,23.0,10.4,59,30.33,10.0,NNW,9.2,16.1,N/A,,Clear,330,2013-03-13 16:35:00
11:55 AM,23.0,12.2,63,30.33,10.0,NW,8.1,15.0,N/A,,Clear,310,2013-03-13 16:55:00
12:15 PM,23.0,12.2,63,30.33,10.0,NW,6.9,-,N/A,,Clear,310,2013-03-13 17:15:00
12:35 PM,24.8,10.4,54,30.33,10.0,NW,8.1,15.0,N/A,,Clear,310,2013-03-13 17:35:00
12:55 PM,24.8,10.4,54,30.33,10.0,NW,9.2,-,N/A,,Clear,320,2013-03-13 17:55:00
1:15 PM,26.6,12.2,55,30.33,10.0,NW,9.2,-,N/A,,Clear,310,2013-03-13 18:15:00
1:35 PM,26.6,12.2,55,30.33,10.0,West,8.1,-,N/A,,Clear,270,2013-03-13 18:35:00
1:55 PM,26.6,10.4,51,30.33,10.0,NW,11.5,-,N/A,,Clear,320,2013-03-13 18:55:00
2:15 PM,26.6,12.2,55,30.32,10.0,NW,9.2,16.1,N/A,,Clear,310,2013-03-13 19:15:00
2:35 PM,28.4,14.0,55,30.32,10.0,West,9.2,-,N/A,,Clear,280,2013-03-13 19:35:00
2:55 PM,28.4,14.0,55,30.31,10.0,WNW,10.4,17.3,N/A,,Clear,300,2013-03-13 19:55:00
3:15 PM,28.4,14.0,55,30.31,10.0,WNW,10.4,16.1,N/A,,Clear,300,2013-03-13 20:15:00
3:35 PM,28.4,14.0,55,30.31,10.0,WNW,8.1,-,N/A,,Clear,300,2013-03-13 20:35:00
3:55 PM,26.6,14.0,59,30.31,10.0,Variable,4.6,13.8,N/A,,Clear,0,2013-03-13 20:55:00
4:15 PM,26.6,12.2,55,30.32,10.0,Variable,6.9,15.0,N/A,,Clear,0,2013-03-13 21:15:00
4:35 PM,26.6,14.0,59,30.32,10.0,West,8.1,16.1,N/A,,Clear,280,2013-03-13 21:35:00
4:55 PM,26.6,14.0,59,30.32,10.0,West,8.1,16.1,N/A,,Clear,280,2013-03-13 21:55:00
5:15 PM,26.6,14.0,59,30.32,10.0,WNW,8.1,15.0,N/A,,Clear,290,2013-03-13 22:15:00
5:35 PM,26.6,14.0,59,30.32,10.0,West,8.1,-,N/A,,Clear,270,2013-03-13 22:35:00
5:55 PM,26.6,14.0,59,30.32,10.0,West,6.9,15.0,N/A,,Clear,280,2013-03-13 22:55:00
6:15 PM,24.8,14.0,64,30.32,10.0,WNW,5.8,15.0,N/A,,Clear,290,2013-03-13 23:15:00
6:35 PM,24.8,15.8,69,30.32,10.0,WNW,4.6,-,N/A,,Clear,290,2013-03-13 23:35:00
6:55 PM,24.8,15.8,69,30.32,10.0,West,6.9,-,N/A,,Clear,280,2013-03-13 23:55:00
7:15 PM,23.0,15.8,74,30.31,10.0,Variable,4.6,-,N/A,,Clear,0,2013-03-14 00:15:00
7:35 PM,23.0,15.8,74,30.31,10.0,West,4.6,-,N/A,,Clear,280,2013-03-14 00:35:00
7:55 PM,23.0,15.8,74,30.31,10.0,Calm,Calm,-,N/A,,Clear,0,2013-03-14 00:55:00
8:15 PM,21.2,15.8,80,30.31,10.0,West,5.8,-,N/A,,Clear,260,2013-03-14 01:15:00
8:35 PM,21.2,15.8,80,30.31,10.0,West,4.6,-,N/A,,Clear,270,2013-03-14 01:35:00
8:55 PM,21.2,14.0,74,30.31,10.0,WNW,3.5,-,N/A,,Clear,300,2013-03-14 01:55:00
9:15 PM,21.2,14.0,74,30.31,10.0,Calm,Calm,-,N/A,,Clear,0,2013-03-14 02:15:00
9:35 PM,19.4,14.0,80,30.31,10.0,Calm,Calm,-,N/A,,Clear,0,2013-03-14 02:35:00
9:55 PM,19.4,14.0,80,30.31,10.0,Calm,Calm,-,N/A,,Clear,0,2013-03-14 02:55:00
10:15 PM,19.4,14.0,80,30.31,10.0,West,3.5,-,N/A,,Clear,260,2013-03-14 03:15:00
10:35 PM,19.4,14.0,80,30.31,10.0,Calm,Calm,-,N/A,,Clear,0,2013-03-14 03:35:00
10:55 PM,19.4,14.0,80,30.30,10.0,Calm,Calm,-,N/A,,Clear,0,2013-03-14 03:55:00
11:15 PM,19.4,14.0,80,30.30,10.0,SW,3.5,-,N/A,,Clear,220,2013-03-14 04:15:00
11:35 PM,17.6,14.0,86,30.30,10.0,Calm,Calm,-,N/A,,Clear,0,2013-03-14 04:35:00
11:55 PM,17.6,14.0,86,30.29,10.0,Calm,Calm,-,N/A,,Clear,0,2013-03-14 04:55:00